Satellite: ANTELSAT Catalog number: 40034 Epoch time: 14219.74571504 Element set: 134 Inclination: 097.9754 deg RA of node: 113.3946 deg Eccentricity: 0.0062863 Arg of perigee: 043.4240 deg Mean anomaly: 317.1934 deg Mean motion: 14.71274204 rev/day Decay rate: 1.829e-05 rev/day^2 Epoch rev: 718 Checksum: 283
/EX SB KEPS @ AMSAT $ORB14219.W Orbital Elements 14219.WEATHER
HR AMSAT ORBITAL ELEMENTS FOR WEATHER SATELLITES FROM WA5QGD FORT WORTH,TX August 7, 2014 BID: ORB14219.W TO ALL RADIO AMATEURS BT
Satellite: MET-2/21 Catalog number: 22782 Epoch time: 14219.76750441 Element set: 129 Inclination: 082.5512 deg RA of node: 132.3868 deg Eccentricity: 0.0023574 Arg of perigee: 119.1800 deg Mean anomaly: 292.8228 deg Mean motion: 13.83743107 rev/day Decay rate: 8.0e-07 rev/day^2 Epoch rev: 5725 Checksum: 292
Satellite: OKEAN-4 Catalog number: 23317 Epoch time: 14219.47189049 Element set: 609 Inclination: 082.5389 deg RA of node: 019.8398 deg Eccentricity: 0.0019067 Arg of perigee: 289.7782 deg Mean anomaly: 123.5849 deg Mean motion: 14.85617177 rev/day Decay rate: 1.141e-05 rev/day^2 Epoch rev: 7072 Checksum: 344
Satellite: NOAA-14 Catalog number: 23455 Epoch time: 14219.45947684 Element set: 850 Inclination: 098.7770 deg RA of node: 301.9825 deg Eccentricity: 0.0008569 Arg of perigee: 249.9947 deg Mean anomaly: 240.5276 deg Mean motion: 14.13980972 rev/day Decay rate: 6.5e-07 rev/day^2 Epoch rev: 1119 Checksum: 343
Satellite: NOAA-15 Catalog number: 25338 Epoch time: 14219.50563920 Element set: 287 Inclination: 098.7554 deg RA of node: 213.2719 deg Eccentricity: 0.0010405 Arg of perigee: 006.2399 deg Mean anomaly: 102.4722 deg Mean motion: 14.25452893 rev/day Decay rate: 1.49e-06 rev/day^2 Epoch rev: 84415 Checksum: 300
Satellite: RESURS Catalog number: 25394 Epoch time: 14218.79996465 Element set: 721 Inclination: 098.4175 deg RA of node: 181.0522 deg Eccentricity: 0.0002615 Arg of perigee: 108.0237 deg Mean anomaly: 310.5783 deg Mean motion: 14.24396325 rev/day Decay rate: -1.1e-07 rev/day^2 Epoch rev: 83552 Checksum: 294
Satellite: FENGYUN1 Catalog number: 25730 Epoch time: 14219.00063110 Element set: 210 Inclination: 098.9152 deg RA of node: 179.7884 deg Eccentricity: 0.0023953 Arg of perigee: 333.5521 deg Mean anomaly: 081.2588 deg Mean motion: 14.11991031 rev/day Decay rate: 9.74e-06 rev/day^2 Epoch rev: 78469 Checksum: 296
Satellite: OKEAN-0 Catalog number: 25860 Epoch time: 14219.46524694 Element set: 323 Inclination: 098.0476 deg RA of node: 183.0410 deg Eccentricity: 0.0001019 Arg of perigee: 121.5470 deg Mean anomaly: 029.8632 deg Mean motion: 14.75336120 rev/day Decay rate: 6.05e-06 rev/day^2 Epoch rev: 80971 Checksum: 276
Satellite: NOAA-16 Catalog number: 26536 Epoch time: 14219.41800570 Element set: 782 Inclination: 098.9866 deg RA of node: 279.9943 deg Eccentricity: 0.0010969 Arg of perigee: 045.0829 deg Mean anomaly: 315.1231 deg Mean motion: 14.13031043 rev/day Decay rate: 1.08e-06 rev/day^2 Epoch rev: 71534 Checksum: 305
Satellite: NOAA-17 Catalog number: 27453 Epoch time: 14219.45931210 Element set: 678 Inclination: 098.3164 deg RA of node: 216.4781 deg Eccentricity: 0.0011995 Arg of perigee: 030.1515 deg Mean anomaly: 330.0354 deg Mean motion: 14.24762936 rev/day Decay rate: 1.26e-06 rev/day^2 Epoch rev: 62998 Checksum: 307
Satellite: NOAA-18 Catalog number: 28654 Epoch time: 14219.48299771 Element set: 188 Inclination: 099.1525 deg RA of node: 200.0236 deg Eccentricity: 0.0015401 Arg of perigee: 119.0256 deg Mean anomaly: 348.7821 deg Mean motion: 14.12047940 rev/day Decay rate: 5.8e-07 rev/day^2 Epoch rev: 47480 Checksum: 306
Satellite: NOAA-19 Catalog number: 33591 Epoch time: 14219.45209841 Element set: 331 Inclination: 098.9473 deg RA of node: 164.3437 deg Eccentricity: 0.0013512 Arg of perigee: 339.5491 deg Mean anomaly: 126.6187 deg Mean motion: 14.11746066 rev/day Decay rate: 6.9e-07 rev/day^2 Epoch rev: 28322 Checksum: 312
/EX SB KEPS @ AMSAT $ORB14219.M Orbital Elements 14219.MISC
HR AMSAT ORBITAL ELEMENTS FOR MANNED AND MISCELLANEOUS SATELLITES FROM WA5QGD FORT WORTH,TX August 7, 2014 BID: ORB14219.M TO ALL RADIO AMATEURS BT
Satellite: HUBBLE Catalog number: 20580 Epoch time: 14219.76945413 Element set: 71 Inclination: 028.4705 deg RA of node: 058.0062 deg Eccentricity: 0.0003206 Arg of perigee: 113.0720 deg Mean anomaly: 344.9168 deg Mean motion: 15.05600065 rev/day Decay rate: 1.992e-05 rev/day^2 Epoch rev: 13249 Checksum: 262
Satellite: ISS Catalog number: 25544 Epoch time: 14219.91894913 Element set: 854 Inclination: 051.6455 deg RA of node: 203.1576 deg Eccentricity: 0.0006920 Arg of perigee: 345.1293 deg Mean anomaly: 055.7727 deg Mean motion: 15.50613042 rev/day Decay rate: 8.246e-05 rev/day^2 Epoch rev: 89935 Checksum: 314
Satellite: CO-58 Catalog number: 28895 Epoch time: 14218.79025834 Element set: 837 Inclination: 097.8321 deg RA of node: 058.0258 deg Eccentricity: 0.0016976 Arg of perigee: 206.5009 deg Mean anomaly: 153.5327 deg Mean motion: 14.61959041 rev/day Decay rate: 7.59e-06 rev/day^2 Epoch rev: 46764 Checksum: 350
Satellite: FALCON Catalog number: 30776 Epoch time: 14219.27063979 Element set: 927 Inclination: 035.4288 deg RA of node: 157.3482 deg Eccentricity: 0.0001331 Arg of perigee: 321.0113 deg Mean anomaly: 165.3827 deg Mean motion: 15.16840788 rev/day Decay rate: 6.532e-05 rev/day^2 Epoch rev: 40849 Checksum: 309
Satellite: MAST Catalog number: 31126 Epoch time: 14219.78076514 Element set: 112 Inclination: 097.9188 deg RA of node: 197.9988 deg Eccentricity: 0.0092047 Arg of perigee: 192.5211 deg Mean anomaly: 288.1109 deg Mean motion: 14.55336549 rev/day Decay rate: 2.51e-06 rev/day^2 Epoch rev: 38789 Checksum: 334
Satellite: CAPE1 Catalog number: 31130 Epoch time: 14219.39349074 Element set: 118 Inclination: 097.9397 deg RA of node: 194.3490 deg Eccentricity: 0.0098334 Arg of perigee: 212.0616 deg Mean anomaly: 147.4577 deg Mean motion: 14.54521651 rev/day Decay rate: 4.91e-06 rev/day^2 Epoch rev: 38725 Checksum: 311
Satellite: COMPASS Catalog number: 32787 Epoch time: 14219.13789843 Element set: 4 Inclination: 097.6981 deg RA of node: 271.2058 deg Eccentricity: 0.0013834 Arg of perigee: 019.9881 deg Mean anomaly: 340.1875 deg Mean motion: 14.88127570 rev/day Decay rate: 2.875e-05 rev/day^2 Epoch rev: 33976 Checksum: 340
Satellite: AAUSAT2 Catalog number: 32788 Epoch time: 14219.72230560 Element set: 991 Inclination: 097.6990 deg RA of node: 272.8241 deg Eccentricity: 0.0013142 Arg of perigee: 015.8902 deg Mean anomaly: 344.2725 deg Mean motion: 14.88863463 rev/day Decay rate: 2.202e-05 rev/day^2 Epoch rev: 33991 Checksum: 310
Satellite: DO-64 Catalog number: 32789 Epoch time: 14219.12998334 Element set: 31 Inclination: 097.7189 deg RA of node: 279.2465 deg Eccentricity: 0.0011494 Arg of perigee: 003.8279 deg Mean anomaly: 054.2093 deg Mean motion: 14.93851810 rev/day Decay rate: 5.501e-05 rev/day^2 Epoch rev: 34010 Checksum: 314
Satellite: CO-66 Catalog number: 32791 Epoch time: 14219.14094264 Element set: 986 Inclination: 097.6977 deg RA of node: 269.8666 deg Eccentricity: 0.0014619 Arg of perigee: 023.3521 deg Mean anomaly: 336.8356 deg Mean motion: 14.86745861 rev/day Decay rate: 2.276e-05 rev/day^2 Epoch rev: 33962 Checksum: 362
Satellite: RS-30 Catalog number: 32953 Epoch time: 14219.58113476 Element set: 178 Inclination: 082.5043 deg RA of node: 169.2561 deg Eccentricity: 0.0020366 Arg of perigee: 045.8851 deg Mean anomaly: 314.3902 deg Mean motion: 12.43049480 rev/day Decay rate: 1.0e-07 rev/day^2 Epoch rev: 28164 Checksum: 283
Satellite: METEOR-M Catalog number: 35865 Epoch time: 14219.73412181 Element set: 783 Inclination: 098.5447 deg RA of node: 265.5735 deg Eccentricity: 0.0002181 Arg of perigee: 327.9225 deg Mean anomaly: 032.1821 deg Mean motion: 14.21926752 rev/day Decay rate: -5.0e-08 rev/day^2 Epoch rev: 25366 Checksum: 297
Satellite: RS-38 Catalog number: 35869 Epoch time: 14219.78430420 Element set: 699 Inclination: 098.5387 deg RA of node: 265.3999 deg Eccentricity: 0.0003506 Arg of perigee: 312.2644 deg Mean anomaly: 175.1552 deg Mean motion: 14.22220330 rev/day Decay rate: 1.6e-07 rev/day^2 Epoch rev: 25370 Checksum: 310
Satellite: JUGNU Catalog number: 37839 Epoch time: 14219.47276378 Element set: 668 Inclination: 019.9612 deg RA of node: 304.1099 deg Eccentricity: 0.0018826 Arg of perigee: 189.0812 deg Mean anomaly: 266.9980 deg Mean motion: 14.12324435 rev/day Decay rate: 4.07e-06 rev/day^2 Epoch rev: 14581 Checksum: 327
Satellite: SRMSAT Catalog number: 37841 Epoch time: 14219.46586602 Element set: 672 Inclination: 019.9721 deg RA of node: 324.5036 deg Eccentricity: 0.0011827 Arg of perigee: 126.1606 deg Mean anomaly: 309.3951 deg Mean motion: 14.10363427 rev/day Decay rate: 3.74e-06 rev/day^2 Epoch rev: 14560 Checksum: 285
Satellite: RAX-2 Catalog number: 37853 Epoch time: 14219.80288308 Element set: 880 Inclination: 101.7111 deg RA of node: 274.0819 deg Eccentricity: 0.0214859 Arg of perigee: 267.3895 deg Mean anomaly: 208.8956 deg Mean motion: 14.89891680 rev/day Decay rate: 2.381e-05 rev/day^2 Epoch rev: 15034 Checksum: 338
Satellite: AUBIESAT Catalog number: 37854 Epoch time: 14219.12740015 Element set: 860 Inclination: 101.7150 deg RA of node: 275.1237 deg Eccentricity: 0.0212640 Arg of perigee: 266.2288 deg Mean anomaly: 146.4359 deg Mean motion: 14.91245198 rev/day Decay rate: 3.187e-05 rev/day^2 Epoch rev: 15030 Checksum: 281
Satellite: HRBE Catalog number: 37855 Epoch time: 14219.14097227 Element set: 870 Inclination: 101.7146 deg RA of node: 274.4277 deg Eccentricity: 0.0215007 Arg of perigee: 267.6325 deg Mean anomaly: 149.0129 deg Mean motion: 14.90529373 rev/day Decay rate: 2.898e-05 rev/day^2 Epoch rev: 15027 Checksum: 310
